Hourly Data Report for March 12, 2004

TORONTO CITY
ONTARIO

43°40'00.000" N
79°24'00.000" W
112.50 m
6158355
71508
XTO

Download Data

Hourly Data (March 2004)
Hourly Data Report for March 12, 2004
TIME
LST
Temp Definition
°C
Dew Point Definition
°C
Rel Hum Definition
%
Precip. Amount Definition
mm

Wind Dir Definition
10's deg

Wind Spd Definition
km/h
Visibility Definition
km
Stn Press Definition
kPa
Hmdx Definition


Wind Chill Definition


Weather Definition


00:00 1.9 -1.4 79   LegendMM LegendMM LegendMM 99.26     LegendNANA
01:00 1.3 -2.7 75   LegendMM LegendMM LegendMM 99.26     LegendNANA
02:00 -0.6 -3.9 78   LegendMM LegendMM LegendMM 99.33     LegendNANA
03:00 -2.0 -7.2 68   LegendMM LegendMM LegendMM 99.39     LegendNANA
04:00 -2.7 -9.1 61   LegendMM LegendMM LegendMM 99.43     LegendNANA
05:00 -3.0 -9.3 62   LegendMM LegendMM LegendMM 99.48     LegendNANA
06:00 -3.0 -8.5 66   LegendMM LegendMM LegendMM 99.53     LegendNANA
07:00 -2.8 -6.9 73   LegendMM LegendMM LegendMM 99.58     LegendNANA
08:00 -3.2 -5.9 82   LegendMM LegendMM LegendMM 99.64     LegendNANA
09:00 -2.5 -5.1 82   LegendMM LegendMM LegendMM 99.66     LegendNANA
10:00 -1.2 -4.6 78   LegendMM LegendMM LegendMM 99.74     LegendNANA
11:00 -0.9 -6.5 66   LegendMM LegendMM LegendMM 99.88     LegendNANA
12:00 -0.8 -6.4 66   LegendMM LegendMM LegendMM 99.95     LegendNANA
13:00 -0.2 -6.3 63   LegendMM LegendMM LegendMM 100.03     LegendNANA
14:00 -1.0 -7.2 63   LegendMM LegendMM LegendMM 100.09     LegendNANA
15:00 -1.8 -8.0 63   LegendMM LegendMM LegendMM 100.17     LegendNANA
16:00 -2.3 -8.7 61   LegendMM LegendMM LegendMM 100.24     LegendNANA
17:00 -2.9 -9.9 58   LegendMM LegendMM LegendMM 100.34     LegendNANA
18:00 -3.7 -8.6 69   LegendMM LegendMM LegendMM 100.42     LegendNANA
19:00 -4.1 -8.3 73   LegendMM LegendMM LegendMM 100.51     LegendNANA
20:00 -4.4 -8.2 75   LegendMM LegendMM LegendMM 100.60     LegendNANA
21:00 -4.3 -9.6 66   LegendMM LegendMM LegendMM 100.63     LegendNANA
22:00 -4.2 -9.7 65   LegendMM LegendMM LegendMM 100.64     LegendNANA
23:00 -4.2 -9.3 68   LegendMM LegendMM LegendMM 100.65     LegendNANA

Notes on Data Quality.

Legend

  • E = Estimated
  • M = Missing
  • NA = Not Available*
  • [empty] = Indicates an unobserved value
Date modified: